Time,TemperatureF,DewpointF,PressureIn,WindDirection,WindDirectionDegrees,WindSpeedMPH,WindSpeedGustMPH,Humidity,HourlyPrecipIn,Conditions,Clouds,dailyrainin,SolarRadiationWatts/m^2,SoftwareType,DateUTC
2013-03-07 00:02:00,32.0,23.0,-100.00,NW,312,8.0,11.0,70,0.00,,,0.00,0.000000,,2013-03-07 05:02:00,
2013-03-07 00:32:00,32.0,23.0,-100.00,NW,311,4.0,11.0,69,0.00,,,0.00,0.000000,,2013-03-07 05:32:00,
2013-03-07 00:42:00,32.0,23.0,-100.00,NW,311,4.0,11.0,69,0.00,,,0.00,0.000000,,2013-03-07 05:42:00,
2013-03-07 00:52:00,32.0,23.0,-100.00,NW,311,4.0,11.0,69,0.00,,,0.00,0.000000,,2013-03-07 05:52:00,
2013-03-07 01:02:00,32.0,23.0,-100.00,NW,311,4.0,11.0,69,0.00,,,0.00,0.000000,,2013-03-07 06:02:00,
2013-03-07 01:32:00,31.0,23.0,-100.00,South,184,1.0,9.0,71,0.00,,,0.00,0.000000,,2013-03-07 06:32:00,
2013-03-07 01:42:00,31.0,23.0,-100.00,South,184,1.0,9.0,71,0.00,,,0.00,0.000000,,2013-03-07 06:42:00,
2013-03-07 01:52:00,31.0,23.0,-100.00,South,184,1.0,9.0,71,0.00,,,0.00,0.000000,,2013-03-07 06:52:00,
2013-03-07 02:01:00,31.0,23.0,-100.00,South,184,1.0,9.0,71,0.00,,,0.00,0.000000,,2013-03-07 07:01:00,
2013-03-07 02:32:00,31.0,23.0,-100.00,NNW,327,2.0,4.0,72,0.00,,,0.00,0.000000,,2013-03-07 07:32:00,
2013-03-07 02:43:00,31.0,23.0,-100.00,NNW,327,2.0,4.0,72,0.00,,,0.00,0.000000,,2013-03-07 07:43:00,
2013-03-07 02:53:00,31.0,23.0,-100.00,NNW,327,2.0,4.0,72,0.00,,,0.00,0.000000,,2013-03-07 07:53:00,
2013-03-07 03:03:00,31.0,23.0,-100.00,NNW,327,2.0,4.0,72,0.00,,,0.00,0.000000,,2013-03-07 08:03:00,
2013-03-07 03:34:00,30.0,23.0,-100.00,SW,234,1.0,3.0,76,0.00,,,0.00,0.000000,,2013-03-07 08:34:00,
2013-03-07 03:45:00,30.0,23.0,-100.00,SW,234,1.0,3.0,76,0.00,,,0.00,0.000000,,2013-03-07 08:45:00,
2013-03-07 03:54:00,30.0,23.0,-100.00,SW,234,1.0,3.0,76,0.00,,,0.00,0.000000,,2013-03-07 08:54:00,
2013-03-07 04:03:00,30.0,23.0,-100.00,SW,234,1.0,3.0,76,0.00,,,0.00,0.000000,,2013-03-07 09:03:00,
2013-03-07 04:33:00,29.0,21.0,-100.00,NW,309,3.0,4.0,73,0.00,,,0.00,0.000000,,2013-03-07 09:33:00,
2013-03-07 04:43:00,29.0,21.0,-100.00,NW,309,3.0,4.0,73,0.00,,,0.00,0.000000,,2013-03-07 09:43:00,
2013-03-07 04:53:00,29.0,21.0,-100.00,NW,309,3.0,4.0,73,0.00,,,0.00,0.000000,,2013-03-07 09:53:00,
2013-03-07 05:04:00,29.0,21.0,-100.00,NW,309,3.0,4.0,73,0.00,,,0.00,0.000000,,2013-03-07 10:04:00,
2013-03-07 05:33:00,30.0,23.0,-100.00,North,11,1.0,4.0,75,0.00,,,0.00,0.000000,,2013-03-07 10:33:00,
2013-03-07 05:43:00,30.0,23.0,-100.00,North,11,1.0,4.0,75,0.00,,,0.00,0.000000,,2013-03-07 10:43:00,
2013-03-07 05:53:00,30.0,23.0,-100.00,North,11,1.0,4.0,75,0.00,,,0.00,0.000000,,2013-03-07 10:53:00,
2013-03-07 06:03:00,30.0,23.0,-100.00,North,11,1.0,4.0,75,0.00,,,0.00,0.000000,,2013-03-07 11:03:00,
2013-03-07 06:34:00,29.0,23.0,-100.00,North,352,2.0,2.0,77,0.00,,,0.00,0.000000,,2013-03-07 11:34:00,
2013-03-07 06:44:00,29.0,23.0,-100.00,North,352,2.0,2.0,77,0.00,,,0.00,0.000000,,2013-03-07 11:44:00,
2013-03-07 06:55:00,29.0,23.0,-100.00,North,352,2.0,2.0,77,0.00,,,0.00,0.000000,,2013-03-07 11:55:00,
2013-03-07 07:04:00,29.0,23.0,-100.00,North,352,2.0,2.0,77,0.00,,,0.00,0.000000,,2013-03-07 12:04:00,
2013-03-07 07:34:00,29.0,23.0,-100.00,North,5,0.0,2.0,77,0.00,,,0.00,4.000000,,2013-03-07 12:34:00,
2013-03-07 07:43:00,29.0,23.0,-100.00,North,5,0.0,2.0,77,0.00,,,0.00,4.000000,,2013-03-07 12:43:00,
2013-03-07 07:53:00,29.0,23.0,-100.00,North,5,0.0,2.0,77,0.00,,,0.00,4.000000,,2013-03-07 12:53:00,
2013-03-07 08:03:00,29.0,23.0,-100.00,North,5,0.0,2.0,77,0.00,,,0.00,4.000000,,2013-03-07 13:03:00,
2013-03-07 09:34:00,40.0,28.0,-100.00,East,79,2.0,4.0,61,-99.99,,,0.00,357.000000,,2013-03-07 14:34:00,
2013-03-07 09:43:00,40.0,28.0,-100.00,East,79,2.0,4.0,61,-99.99,,,0.00,357.000000,,2013-03-07 14:43:00,
2013-03-07 09:54:00,40.0,28.0,-100.00,East,79,2.0,4.0,61,-99.99,,,0.00,357.000000,,2013-03-07 14:54:00,
2013-03-07 10:03:00,40.0,28.0,-100.00,East,79,2.0,4.0,61,-99.99,,,0.00,357.000000,,2013-03-07 15:03:00,
2013-03-07 10:33:00,44.0,28.0,-100.00,SSE,163,3.0,6.0,54,0.00,,,0.00,603.000000,,2013-03-07 15:33:00,
2013-03-07 10:43:00,44.0,28.0,-100.00,SSE,163,3.0,6.0,54,0.00,,,0.00,603.000000,,2013-03-07 15:43:00,
2013-03-07 10:53:00,44.0,28.0,-100.00,SSE,163,3.0,6.0,54,0.00,,,0.00,603.000000,,2013-03-07 15:53:00,
2013-03-07 11:02:00,44.0,28.0,-100.00,SSE,163,3.0,6.0,54,0.00,,,0.00,603.000000,,2013-03-07 16:02:00,
2013-03-07 11:33:00,47.0,29.0,-100.00,SSE,158,3.0,7.0,50,0.00,,,0.00,682.000000,,2013-03-07 16:33:00,
2013-03-07 11:43:00,47.0,29.0,-100.00,SSE,158,3.0,7.0,50,0.00,,,0.00,682.000000,,2013-03-07 16:43:00,
2013-03-07 11:53:00,47.0,29.0,-100.00,SSE,158,3.0,7.0,50,0.00,,,0.00,682.000000,,2013-03-07 16:53:00,
2013-03-07 12:03:00,47.0,29.0,-100.00,SSE,158,3.0,7.0,50,0.00,,,0.00,682.000000,,2013-03-07 17:03:00,
2013-03-07 12:34:00,52.0,29.0,-100.00,SE,146,3.0,7.0,41,0.00,,,0.00,891.000000,,2013-03-07 17:34:00,
2013-03-07 12:44:00,52.0,29.0,-100.00,SE,146,3.0,7.0,41,0.00,,,0.00,891.000000,,2013-03-07 17:44:00,
2013-03-07 12:55:00,52.0,29.0,-100.00,SE,146,3.0,7.0,41,0.00,,,0.00,891.000000,,2013-03-07 17:55:00,
2013-03-07 13:04:00,52.0,29.0,-100.00,SE,146,3.0,7.0,41,0.00,,,0.00,891.000000,,2013-03-07 18:04:00,
2013-03-07 13:33:00,56.0,29.0,-100.00,SSE,150,4.0,7.0,36,0.00,,,0.00,962.000000,,2013-03-07 18:33:00,
2013-03-07 13:43:00,56.0,29.0,-100.00,SSE,150,4.0,7.0,36,0.00,,,0.00,962.000000,,2013-03-07 18:43:00,
2013-03-07 13:53:00,56.0,29.0,-100.00,SSE,150,4.0,7.0,36,0.00,,,0.00,962.000000,,2013-03-07 18:53:00,
2013-03-07 14:03:00,56.0,29.0,-100.00,SSE,150,4.0,7.0,36,0.00,,,0.00,962.000000,,2013-03-07 19:03:00,
2013-03-07 14:35:00,60.0,28.0,-100.00,SE,142,3.0,7.0,29,0.00,,,0.00,926.000000,,2013-03-07 19:35:00,
2013-03-07 14:44:00,60.0,28.0,-100.00,SE,142,3.0,7.0,29,0.00,,,0.00,926.000000,,2013-03-07 19:44:00,
2013-03-07 14:53:00,60.0,28.0,-100.00,SE,142,3.0,7.0,29,0.00,,,0.00,926.000000,,2013-03-07 19:53:00,
2013-03-07 15:02:00,60.0,28.0,-100.00,SE,142,3.0,7.0,29,0.00,,,0.00,926.000000,,2013-03-07 20:02:00,
2013-03-07 15:34:00,59.0,28.0,-100.00,South,174,4.0,9.0,30,0.00,,,0.00,768.000000,,2013-03-07 20:34:00,
2013-03-07 15:43:00,59.0,28.0,-100.00,South,174,4.0,9.0,30,0.00,,,0.00,768.000000,,2013-03-07 20:43:00,
2013-03-07 15:54:00,59.0,28.0,-100.00,South,174,4.0,9.0,30,0.00,,,0.00,768.000000,,2013-03-07 20:54:00,
2013-03-07 16:03:00,59.0,28.0,-100.00,South,174,4.0,9.0,30,0.00,,,0.00,768.000000,,2013-03-07 21:03:00,
2013-03-07 16:33:00,59.0,27.0,-100.00,SE,127,5.0,9.0,29,0.00,,,0.00,485.000000,,2013-03-07 21:33:00,
2013-03-07 16:43:00,59.0,27.0,-100.00,SE,127,5.0,9.0,29,0.00,,,0.00,485.000000,,2013-03-07 21:43:00,
2013-03-07 16:53:00,59.0,27.0,-100.00,SE,127,5.0,9.0,29,0.00,,,0.00,485.000000,,2013-03-07 21:53:00,
2013-03-07 17:02:00,59.0,27.0,-100.00,SE,127,5.0,9.0,29,0.00,,,0.00,485.000000,,2013-03-07 22:02:00,
2013-03-07 17:33:00,56.0,26.0,-100.00,SE,135,4.0,7.0,31,0.00,,,0.00,190.000000,,2013-03-07 22:33:00,
2013-03-07 17:43:00,56.0,26.0,-100.00,SE,135,4.0,7.0,31,0.00,,,0.00,190.000000,,2013-03-07 22:43:00,
2013-03-07 17:55:00,56.0,26.0,-100.00,SE,135,4.0,7.0,31,0.00,,,0.00,190.000000,,2013-03-07 22:55:00,
2013-03-07 18:03:00,56.0,26.0,-100.00,SE,135,4.0,7.0,31,0.00,,,0.00,190.000000,,2013-03-07 23:03:00,
2013-03-07 18:35:00,53.0,27.0,-100.00,ESE,119,3.0,7.0,37,0.00,,,0.00,72.000000,,2013-03-07 23:35:00,
2013-03-07 18:44:00,53.0,27.0,-100.00,ESE,119,3.0,7.0,37,0.00,,,0.00,72.000000,,2013-03-07 23:44:00,
2013-03-07 18:54:00,53.0,27.0,-100.00,ESE,119,3.0,7.0,37,0.00,,,0.00,72.000000,,2013-03-07 23:54:00,
2013-03-07 19:04:00,53.0,27.0,-100.00,ESE,119,3.0,7.0,37,0.00,,,0.00,72.000000,,2013-03-08 00:04:00,
2013-03-07 19:35:00,48.0,27.0,-100.00,East,79,3.0,6.0,44,0.00,,,0.00,7.000000,,2013-03-08 00:35:00,
2013-03-07 19:44:00,48.0,27.0,-100.00,East,79,3.0,6.0,44,0.00,,,0.00,7.000000,,2013-03-08 00:44:00,
2013-03-07 19:54:00,48.0,27.0,-100.00,East,79,3.0,6.0,44,0.00,,,0.00,7.000000,,2013-03-08 00:54:00,
2013-03-07 20:02:00,48.0,27.0,-100.00,East,79,3.0,6.0,44,0.00,,,0.00,7.000000,,2013-03-08 01:02:00,
2013-03-07 20:33:00,46.0,28.0,-100.00,ENE,73,2.0,9.0,50,0.00,,,0.00,0.000000,,2013-03-08 01:33:00,
2013-03-07 20:42:00,46.0,28.0,-100.00,ENE,73,2.0,9.0,50,0.00,,,0.00,0.000000,,2013-03-08 01:42:00,
2013-03-07 20:52:00,46.0,28.0,-100.00,ENE,73,2.0,9.0,50,0.00,,,0.00,0.000000,,2013-03-08 01:52:00,
2013-03-07 21:02:00,46.0,28.0,-100.00,ENE,73,2.0,9.0,50,0.00,,,0.00,0.000000,,2013-03-08 02:02:00,
2013-03-07 21:32:00,46.0,28.0,-100.00,NE,36,2.0,3.0,50,0.00,,,0.00,0.000000,,2013-03-08 02:32:00,
2013-03-07 21:42:00,46.0,28.0,-100.00,NE,36,2.0,3.0,50,0.00,,,0.00,0.000000,,2013-03-08 02:42:00,
2013-03-07 21:53:00,46.0,28.0,-100.00,NE,36,2.0,3.0,50,0.00,,,0.00,0.000000,,2013-03-08 02:53:00,
2013-03-07 22:02:00,46.0,28.0,-100.00,NE,36,2.0,3.0,50,0.00,,,0.00,0.000000,,2013-03-08 03:02:00,
2013-03-07 22:33:00,44.0,30.0,-100.00,NNW,334,3.0,4.0,57,0.00,,,0.00,0.000000,,2013-03-08 03:33:00,
2013-03-07 22:43:00,44.0,30.0,-100.00,NNW,334,3.0,4.0,57,0.00,,,0.00,0.000000,,2013-03-08 03:43:00,
2013-03-07 22:53:00,44.0,30.0,-100.00,NNW,334,3.0,4.0,57,0.00,,,0.00,0.000000,,2013-03-08 03:53:00,
2013-03-07 23:02:00,44.0,30.0,-100.00,NNW,334,3.0,4.0,57,0.00,,,0.00,0.000000,,2013-03-08 04:02:00,
2013-03-07 23:32:00,42.0,26.0,-100.00,NW,311,3.0,5.0,53,0.00,,,0.00,0.000000,,2013-03-08 04:32:00,
2013-03-07 23:42:00,42.0,26.0,-100.00,NW,311,3.0,5.0,53,0.00,,,0.00,0.000000,,2013-03-08 04:42:00,
2013-03-07 23:52:00,42.0,26.0,-100.00,NW,311,3.0,5.0,53,0.00,,,0.00,0.000000,,2013-03-08 04:52:00,